Miscellaneous Local Product
Issued by NWS Hastings, NE

Home | Current Version | Previous Version | Text Only | Print | Product List | Glossary On
Versions: 1 2 3 4 5 6 7 8 9 10 11 12 13 14 15 16 17 18 19 20 21 22 23 24 25 26 27 28 29 30 31 32 33 34 35 36 37 38 39 40 41 42 43 44 45 46 47 48 49 50
052
AXUS43 KGID 120302
MISGRI

GID CWA HOURLY WEATHER ROUNDUP
NATIONAL WEATHER SERVICE HASTINGS NE
900 PM CST THU FEB 11 2016

NOTE: "FAIR" INDICATES FEW OR NO CLOUDS BELOW 12,000 FEET WITH NO
SIGNIFICANT WEATHER AND/OR OBSTRUCTIONS TO VISIBILITY.

...SOUTH CENTRAL NEBRASKA...

CITY           SKY/WX    TMP DP  RH WIND       PRES   REMARKS
GRAND ISLAND   CLEAR     25  23  92 SW7       30.14  FOG     WCI  17
HASTINGS       CLEAR     30  26  85 W6        30.13R WCI  24
KEARNEY        CLOUDY    34  30  86 W5        30.14R WCI  30
ORD            CLEAR     36  30  79 N14       30.12R WCI  27
YORK           CLEAR     27  27 100 SW7       30.14R FOG     WCI  19
AURORA         CLEAR     26  25  94 CALM      30.13R
LEXINGTON      CLOUDY    32  29  88 NW6       30.14R WCI  26
HOLDREGE       CLOUDY    35  31  85 W6        30.13R WCI  30
HEBRON         CLEAR     26  24  95 CALM      30.15F FOG

...NEBRASKA PANHANDLE...

CITY           SKY/WX    TMP DP  RH WIND       PRES   REMARKS
CHADRON        CLOUDY    35  25  66 NE5       30.19R WCI  31
ALLIANCE       CLOUDY    41  26  55 N16       30.17R
SCOTTSBLUFF    CLEAR     37  27  67 N5        30.22R WCI  33
SIDNEY         CLOUDY    36  29  75 W12       30.22R WCI  28

...WESTERN AND NORTH CENTRAL NEBRASKA...

CITY           SKY/WX    TMP DP  RH WIND       PRES   REMARKS
VALENTINE      CLOUDY    30  27  88 N6        30.18R WCI  24
AINSWORTH      CLOUDY    30  28  94 N8        30.17R WCI  22
ONEILL         FOG       28  27  96 N6        30.16R VSB 1   WCI  21
BROKEN BOW     CLEAR     41  32  70 NW10      30.13R
IMPERIAL       CLOUDY    42  30  62 W10       30.17R
NORTH PLATTE   CLOUDY    34  28  79 NW5       30.15R WCI  30
MCCOOK         CLOUDY    37  31  78 W12       30.14R WCI  29

...EASTERN NEBRASKA...

CITY           SKY/WX    TMP DP  RH WIND       PRES   REMARKS
NORFOLK        CLOUDY    26  23  88 E5        30.16R FOG     WCI  20
SO SIOUX CITY  CLOUDY    19  15  84 E3        30.23R
TEKAMAH        CLOUDY    20  18  92 CALM      30.21S
COLUMBUS       CLOUDY    27  18  69 SE7       30.17R WCI  19
ALBION         MOCLDY    28  26  89 E5        30.12R WCI  23
OMAHA EPPLEY   FLURRIES  25  19  78 N5        30.21S WCI  19
OFFUTT AFB     CLOUDY    28  23  79 NE7       30.19S WCI  21
MILLARD        CLOUDY    30  24  77 CALM      30.20S
LINCOLN        CLOUDY    30  24  78 E3        30.19S
NEBRASKA CITY  CLOUDY    30  26  84 CALM      30.18S
BEATRICE       PTCLDY    28  25  87 CALM      30.16S
FALLS CITY     CLOUDY    30  21  69 SE3       30.17F

...NORTHERN KANSAS...

CITY           SKY/WX    TMP DP  RH WIND       PRES   REMARKS
GOODLAND       CLEAR     33  27  78 W6        30.21R WCI  28
HILL CITY      CLOUDY    33  30  88 W6        30.16R WCI  28
NORTON         CLEAR     34  28  80 SW8       30.13S WCI  27
PHILLIPSBURG   CLOUDY    32  30  93 CALM      30.15S
SMITH CENTER   CLEAR     27  25  93 CALM      30.15S
BELOIT         CLEAR     27  25  93 CALM      30.15S
HAYS           CLOUDY    34  21  60 CALM      30.16R
RUSSELL        CLOUDY    33  29  85 S10       30.13S WCI  25
CONCORDIA      CLOUDY    30  25  81 CALM      30.15S
SALINA         CLOUDY    33  24  69 S3        30.17S
TOPEKA         MOCLDY    36  24  62 S3        30.18F



USA.gov is the U.S. government's official web portal to all federal, state and local government web resources and services.